| time (UTC) | temp F | wind direction | speed MPH | gust MPH | rain 1hr in | rain 24hr in | rain mn in | humidity % | barometer mb |
| 20260831153350 | 90 | 343 | 2.0 | 5.0 | 0.00 | 0.00 | 0.00 | 37 | 1013.7 |
| 20260831151848 | 90 | 39 | 0.0 | 4.0 | 0.00 | 0.00 | 0.00 | 38 | 1013.7 |
| 20260831144845 | 90 | 245 | 1.0 | 3.0 | 0.00 | 0.00 | 0.00 | 42 | 1013.6 |
| 20260831143355 | 90 | 159 | 1.0 | 5.0 | 0.00 | 0.00 | 0.00 | 43 | 1013.8 |
| 20260831141853 | 91 | 199 | 1.0 | 7.0 | 0.00 | 0.00 | 0.00 | 42 | 1013.9 |
| 20260831140355 | 91 | 145 | 1.0 | 6.0 | 0.00 | 0.00 | 0.00 | 42 | 1014.0 |
| 20260831134850 | 90 | 189 | 1.0 | 6.0 | 0.00 | 0.00 | 0.00 | 42 | 1014.0 |
| 20260831133352 | 91 | 224 | 2.0 | 4.0 | 0.00 | 0.00 | 0.00 | 42 | 1014.1 |
| 20260831131849 | 91 | 240 | 2.0 | 7.0 | 0.00 | 0.00 | 0.00 | 43 | 1014.0 |
| 20260831130356 | 91 | 276 | 3.0 | 6.0 | 0.00 | 0.00 | 0.00 | 43 | 1014.1 |
| 20260831124851 | 90 | 243 | 2.0 | 9.0 | 0.00 | 0.00 | 0.00 | 43 | 1014.2 |
| 20260831123352 | 90 | 166 | 2.0 | 6.0 | 0.00 | 0.00 | 0.00 | 42 | 1014.3 |
| 20260831121849 | 91 | 241 | 1.0 | 7.0 | 0.00 | 0.00 | 0.00 | 42 | 1014.4 |
| 20260831114849 | 91 | 302 | 2.0 | 10.0 | 0.00 | 0.00 | 0.00 | 39 | 1014.4 |
| 20260831113351 | 91 | 316 | 2.0 | 6.0 | 0.00 | 0.00 | 0.00 | 39 | 1014.6 |
| 20260831111851 | 92 | 323 | 2.0 | 7.0 | 0.00 | 0.00 | 0.00 | 37 | 1014.8 |
| 20260831110351 | 92 | 341 | 1.0 | 9.0 | 0.00 | 0.00 | 0.00 | 39 | 1014.9 |
| 20260831103351 | 90 | 289 | 1.0 | 6.0 | 0.00 | 0.00 | 0.00 | 40 | 1015.3 |
| 20260831101849 | 90 | 334 | 3.0 | 10.0 | 0.00 | 0.00 | 0.00 | 40 | 1015.3 |
| 20260831100353 | 90 | 327 | 2.0 | 7.0 | 0.00 | 0.00 | 0.00 | 39 | 1015.4 |
| 20260831091847 | 89 | 334 | 2.0 | 6.0 | 0.00 | 0.00 | 0.00 | 40 | 1015.7 |
| 20260831090349 | 89 | 4 | 3.0 | 9.0 | 0.00 | 0.00 | 0.00 | 41 | 1015.8 |
| 20260831084847 | 88 | 23 | 3.0 | 9.0 | 0.00 | 0.00 | 0.00 | 41 | 1015.9 |
| 20260831083348 | 87 | 28 | 1.0 | 5.0 | 0.00 | 0.00 | 0.00 | 42 | 1016.0 |
| 20260831081846 | 87 | 299 | 0.0 | 6.0 | 0.00 | 0.00 | 0.00 | 44 | 1016.0 |
| 20260831080346 | 87 | 333 | 2.0 | 9.0 | 0.00 | 0.00 | 0.00 | 44 | 1015.9 |
| 20260831074844 | 85 | 0 | 4.0 | 9.0 | 0.00 | 0.00 | 0.00 | 45 | 1015.9 |
| 20260831073349 | 85 | 351 | 1.0 | 6.0 | 0.00 | 0.00 | 0.00 | 47 | 1015.8 |
| 20260831071845 | 84 | 38 | 2.0 | 5.0 | 0.00 | 0.00 | 0.00 | 47 | 1015.8 |
| 20260831070346 | 83 | 312 | 2.0 | 5.0 | 0.00 | 0.00 | 0.00 | 47 | 1015.8 |
| 20260831064844 | 83 | 321 | 2.0 | 4.0 | 0.00 | 0.00 | 0.00 | 47 | 1015.8 |
| 20260831061839 | 81 | 52 | 0.0 | 0.0 | 0.00 | 0.00 | 0.00 | 50 | 1016.0 |
| 20260831060345 | 80 | 237 | 0.0 | 0.0 | 0.00 | 0.00 | 0.00 | 51 | 1015.9 |
| 20260831054839 | 80 | 247 | 0.0 | 0.0 | 0.00 | 0.00 | 0.00 | 52 | 1015.9 |
| 20260831053346 | 79 | 79 | 0.0 | 0.0 | 0.00 | 0.00 | 0.00 | 53 | 1015.8 |
| 20260831051839 | 78 | 147 | 0.0 | 2.0 | 0.00 | 0.00 | 0.00 | 55 | 1015.8 |
| 20260831050342 | 78 | 164 | 0.0 | 0.0 | 0.00 | 0.00 | 0.00 | 58 | 1015.7 |
| 20260831043357 | 76 | 154 | 0.0 | 0.0 | 0.00 | 0.00 | 0.00 | 63 | 1015.6 |
| 20260831041843 | 76 | 152 | 0.0 | 0.0 | 0.00 | 0.00 | 0.00 | 63 | 1015.4 |
| 20260831040342 | 76 | 178 | 0.0 | 0.0 | 0.00 | 0.00 | 0.00 | 65 | 1015.5 |
| 20260831034831 | 76 | 172 | 0.0 | 0.0 | 0.00 | 0.00 | 0.00 | 66 | 1015.4 |
| 20260831033337 | 77 | 159 | 0.0 | 0.0 | 0.00 | 0.00 | 0.00 | 67 | 1015.4 |
| 20260831031836 | 77 | 157 | 0.0 | 0.0 | 0.00 | 0.00 | 0.00 | 67 | 1015.4 |
| 20260831030340 | 77 | 147 | 0.0 | 0.0 | 0.00 | 0.00 | 0.00 | 68 | 1015.5 |
| 20260831024837 | 77 | 154 | 0.0 | 0.0 | 0.00 | 0.00 | 0.00 | 71 | 1015.4 |
| 20260831023332 | 77 | 171 | 0.0 | 0.0 | 0.00 | 0.00 | 0.00 | 70 | 1015.3 |
| 20260831021827 | 77 | 155 | 0.0 | 0.0 | 0.00 | 0.00 | 0.00 | 68 | 1015.3 |
| 20260831013343 | 78 | 100 | 0.0 | 0.0 | 0.00 | 0.00 | 0.00 | 49 | 1015.3 |
| 20260830221836 | 79 | 49 | 0.0 | 0.0 | 0.00 | 0.00 | 0.00 | 58 | 1016.1 |
| 20260830220519 | 79 | 63 | 0.0 | 0.0 | 0.00 | 0.00 | 0.00 | 60 | 1016.1 |
| 20260830210335 | 80 | 148 | 0.0 | 0.0 | 0.00 | 0.00 | 0.00 | 64 | 1016.2 |
| 20260830204828 | 79 | 144 | 0.0 | 2.0 | 0.00 | 0.00 | 0.00 | 66 | 1016.0 |
| 20260830203330 | 79 | 157 | 1.0 | 2.0 | 0.00 | 0.00 | 0.00 | 67 | 1016.0 |
| 20260830201831 | 79 | 149 | 2.0 | 3.0 | 0.00 | 0.00 | 0.00 | 67 | 1016.0 |
| 20260830194830 | 80 | 155 | 1.0 | 3.0 | 0.00 | 0.00 | 0.00 | 67 | 1015.9 |
| 20260830193329 | 80 | 243 | 0.0 | 0.0 | 0.00 | 0.00 | 0.00 | 66 | 1015.8 |
| 20260830191830 | 81 | 265 | 0.0 | 2.0 | 0.00 | 0.00 | 0.00 | 66 | 1015.9 |
| 20260830190329 | 81 | 207 | 0.0 | 0.0 | 0.00 | 0.00 | 0.00 | 66 | 1015.7 |
| 20260830184829 | 81 | 262 | 0.0 | 3.0 | 0.00 | 0.00 | 0.00 | 66 | 1015.7 |
| 20260830183329 | 82 | 281 | 0.0 | 1.0 | 0.00 | 0.00 | 0.00 | 65 | 1015.5 |
| 20260830180329 | 81 | 323 | 0.0 | 2.0 | 0.00 | 0.00 | 0.00 | 66 | 1015.3 |
| 20260830174829 | 81 | 333 | 0.0 | 3.0 | 0.00 | 0.00 | 0.00 | 65 | 1015.2 |
| 20260830173330 | 82 | 281 | 0.0 | 2.0 | 0.00 | 0.00 | 0.00 | 66 | 1015.0 |
| 20260830170331 | 82 | 259 | 0.0 | 4.0 | 0.00 | 0.00 | 0.00 | 66 | 1014.9 |
| 20260830164830 | 83 | 276 | 1.0 | 6.0 | 0.00 | 0.00 | 0.00 | 65 | 1014.8 |
| 20260830163328 | 85 | 281 | 1.0 | 4.0 | 0.00 | 0.00 | 0.00 | 59 | 1014.9 |
| 20260830161825 | 85 | 300 | 4.0 | 5.0 | 0.00 | 0.00 | 0.00 | 56 | 1014.7 |
| 20260830154823 | 87 | 248 | 2.0 | 6.0 | 0.00 | 0.00 | 0.00 | 49 | 1014.6 |